Tracking 28052 objects as of 22-Sep-2023
HD Live streaming from Space Station
objects crossing your sky now

NOAA 16 DEB

Track NOAA 16 DEB now!
10-day predictions


NORAD ID: 41140
Int'l Code: 2000-055BX
Perigee: 735.2 km
Apogee: 819.6 km
Inclination: 98.8 °
Period: 100.2 minutes
Semi major axis: 7148 km
RCS: Unknown
Launch date: September 21, 2000
Source: United States (US)
Launch site: AIR FORCE WESTERN TEST RANGE (AFWTR)

Note: This is SATELLITE DEBRIS
Your satellite tracking list
Your tracking list is empty




NASA's NSSDC Master Catalog

Two Line Element Set (TLE):
1 41140U 00055BX  23264.29864379  .00011631  00000-0  38978-2 0  9994
2 41140  98.8318  32.7794 0059059  64.8514 295.8782 14.36450221407142
Source of the keplerian elements: AFSPC